Location: Karcze
(52.0945°N, 22.4786°E)
Time: 22:34:18
(UTC+00:00)

Transit 4A - Pass Details

Date: 01 August 2021
Orbit: 871 x 974 km, 66.8° (Epoch: 18 September)

Event Time Altitude Azimuth Distance (km) Brightness Sun altitude
Rises 02:07:46 0° 286° (WNW) 3,471 10.6 -6.3°
Reaches altitude 10° 02:10:58 10° 303° (WNW) 2,528 10.0 -5.9°
Maximum altitude 02:15:12 20° 350° (N) 1,906 9.9 -5.4°
Drops below altitude 10° 02:19:27 10° 37° (NE) 2,535 11.8 -4.9°
Sets 02:22:39 0° 54° (NE) 3,483 14.1 -4.5°
